This is the latest recevied weather packets stored in our database for station/object HP3ICC-23. If no packets are shown the sender has not sent any weather packets the latest 10 day(s).
| Time | Temp. | Humidity | Pressure | Rain* | Wind** | Luminosity | Snow |
|---|---|---|---|---|---|---|---|
| 1788188488 | 15° C | 74% | 1014 hPa | 0 mm | - | - | - |
| 1788188427 | 15° C | 74% | 1014 hPa | 0 mm | - | - | - |
| 1788187287 | 14.44° C | 76% | 1014 hPa | 0 mm | - | - | - |
| 1788187227 | 14.44° C | 76% | 1014 hPa | 0 mm | - | - | - |
| 1788186087 | 15° C | 81% | 1014 hPa | 0 mm | - | - | - |
| 1788186027 | 15° C | 81% | 1014 hPa | 0 mm | - | - | - |
| 1788184887 | 14.44° C | 79% | 1014 hPa | 0 mm | - | - | - |
| 1788184826 | 14.44° C | 79% | 1014 hPa | 0 mm | - | - | - |
| 1788183686 | 14.44° C | 81% | 1014 hPa | 0 mm | - | - | - |
| 1788183626 | 14.44° C | 81% | 1014 hPa | 0 mm | - | - | - |
| 1788182486 | 13.33° C | 87% | 1014 hPa | 0 mm | - | - | - |
| 1788182428 | 13.33° C | 87% | 1014 hPa | 0 mm | - | - | - |
| 1788181285 | 13.33° C | 86% | 1014 hPa | 0 mm | - | - | - |
| 1788181225 | 13.33° C | 86% | 1014 hPa | 0 mm | - | - | - |
| 1788180085 | 13.89° C | 89% | 1014 hPa | 0 mm | - | - | - |
| 1788180025 | 13.89° C | 89% | 1014 hPa | 0 mm | - | - | - |
| 1788178885 | 14.44° C | 89% | 1014 hPa | 0 mm | - | - | - |
| 1788178825 | 14.44° C | 89% | 1014 hPa | 0 mm | - | - | - |
| 1788177685 | 13.89° C | 89% | 1014 hPa | 0 mm | - | - | - |
| 1788176484 | 14.44° C | 89% | 1014 hPa | 0 mm | - | - | - |
| 1788176424 | 14.44° C | 89% | 1014 hPa | 0 mm | - | - | - |
| 1788175284 | 13.89° C | 89% | 1013 hPa | 0 mm | - | - | - |
| 1788175224 | 13.89° C | 89% | 1013 hPa | 0 mm | - | - | - |
| 1788174084 | 14.44° C | 89% | 1013 hPa | 0 mm | - | - | - |
| 1788174024 | 14.44° C | 89% | 1013 hPa | 0 mm | - | - | - |
* Rain latest hour (hover to see other rain measurements)
** Current wind speed in m/s (hover to see current wind gust speed)